Hourly Data Report for December 21, 2017

CARBERRY CS
MANITOBA

49°54'20.900" N
99°21'26.800" W
383.50 m
5010547
71170
WZE

Download Data

Hourly Data (December 2017)
Hourly Data Report for December 21, 2017
TIME
LST
Temp Definition
°C
Dew Point Definition
°C
Rel Hum Definition
%
Precip. Amount Definition
mm

Wind Dir Definition
10's deg

Wind Spd Definition
km/h
Visibility Definition
km
Stn Press Definition
kPa
Hmdx Definition


Wind Chill Definition


Weather Definition


00:00 -23.0 -25.8 78 0.0 26 7   97.77   -29 LegendNANA
01:00 -21.0 -23.4 81 0.0 24 7   97.77   -27 LegendNANA
02:00 -20.8 -23.2 81 0.0 25 8   97.75   -27 LegendNANA
03:00 -22.3 -24.6 81 0.0 25 13   97.74   -31 LegendNANA
04:00 -21.9 -24.5 80 0.0 23 8   97.77   -28 LegendNANA
05:00 -22.4 -25.1 79 0.0 26 10   97.73   -30 LegendNANA
06:00 -22.8 -25.5 79 0.0 26 13   97.72   -32 LegendNANA
07:00 -22.9 -25.6 78 0.0 26 15   97.71   -33 LegendNANA
08:00 -22.8 -25.6 78 0.0 24 13   97.71   -32 LegendNANA
09:00 -22.9 -25.8 77 0.0 23 12   97.75   -32 LegendNANA
10:00 -21.5 -24.6 76 0.2 25 14   97.74   -31 LegendNANA
11:00
12:00
13:00 -14.5 -19.0 69 0.0 25 16   97.53   -23 LegendNANA
14:00 -13.2 -18.6 64 0.0 23 14   97.46   -20 LegendNANA
15:00 -12.4 -18.3 61 0.0 22 11   97.35   -18 LegendNANA
16:00 -13.4 -18.2 67 0.0 19 12   97.22   -20 LegendNANA
17:00 -13.1 -18.1 67 0.0 17 16   97.16   -21 LegendNANA
18:00 -13.4 -18.0 68 0.0 18 16   97.06   -21 LegendNANA
19:00 -13.2 -17.4 71 0.0 18 13   96.95   -20 LegendNANA
20:00 -12.7 -17.2 69 0.0 19 14   96.89   -20 LegendNANA
21:00 -11.9 -16.5 69 0.0 20 18   96.81   -20 LegendNANA
22:00 -11.6 -14.2 81 0.0 19 15   96.77   -19 LegendNANA
23:00 -11.3 -13.5 84 0.0 19 11   96.72   -17 LegendNANA

Notes on Data Quality.

Legend

  • E = Estimated
  • M = Missing
  • NA = Not Available*
  • [empty] = Indicates an unobserved value
Date modified: